Location: *
(46.1833°N, 22.7667°E)
Time: 08:38:50
(UTC+00:00)

Cosmos 405 Rocket - Pass Details

Date: 17 September 2019
Orbit: 491 x 554 km, 81.3° (Epoch: 20 October)

Event Time Altitude Azimuth Distance (km) Brightness Sun altitude
Exits shadow 18:04:56 31° 90° (E) 895 3.4 -15.6°
Drops below altitude 10° 18:08:09 10° 31° (NNE) 1,698 5.2 -16.1°
Sets 18:10:26 0° 21° (NNE) 2,591 6.3 -16.5°
